Temperature
19 19 19 18 18 18 17 17 17 17 17 17 17 17 17 17 17 17 17 17 16 16 16 16 16 16 16 16 16 16 16 16 16 16 16 15 15 15 15 15 15 15 15
19 19 18 18 18 17 17 17 17 17 17 17 17 17 17 16 17 16 17 16 16 16 16 16 15 15 16 16 16 16 16 16 16 15 15 15 15 15 15 15 15 15 14
19 19 18 18 18 17 17 17 17 17 17 17 17 16 16 16 16 16 16 16 16 16 16 16 16 15 16 16 16 16 16 16 15 15 15 15 15 15 15 15 15 14 14
18 18 18 18 17 17 17 17 17 17 17 16 16 16 16 16 16 16 16 16 16 16 16 15 15 16 15 15 16 16 15 15 15 15 14 14 14 14 14 15 14 14 14
18 18 18 17 17 17 17 17 16 16 16 16 16 16 16 16 16 16 16 16 16 16 15 15 15 15 15 15 15 15 15 15 15 14 14 14 14 14 14 14 14 14 14
17 18 18 17 17 17 16 16 16 16 16 16 16 16 16 16 16 16 15 15 15 15 15 15 15 15 15 15 15 15 15 15 15 14 14 14 14 14 14 14 14 14 14
17 17 17 17 17 16 16 16 16 16 16 16 15 15 15 15 15 15 15 15 15 15 15 15 15 15 15 15 15 15 15 15 15 14 14 14 14 14 14 14 14 14 14
17 17 17 17 17 16 16 16 16 16 15 15 15 15 15 15 15 15 15 15 15 15 15 15 15 15 15 15 15 15 14 14 14 14 14 14 14 14 14 14 14 14 14
17 17 17 16 16 16 16 16 16 16 15 15 15 15 15 15 15 15 15 15 15 15 15 15 15 14 14 14 14 14 14 14 14 14 14 14 14 14 14 14 14 14 14
16 16 16 16 16 16 16 16 15 15 15 15 15 15 15 15 15 14 14 14 15 15 14 14 14 14 14 14 14 14 14 14 14 14 14 14 14 14 14 14 14 14 14
16 16 16 16 16 16 15 15 15 15 15 15 15 15 14 14 14 14 14 14 14 14 14 14 14 14 14 14 14 14 14 14 14 13 13 13 13 14 14 14 14 13 13
16 16 16 16 15 15 15 15 15 15 15 14 14 14 14 14 14 14 14 14 14 14 14 14 14 14 14 14 14 14 14 13 13 13 13 13 13 13 14 14 13 13 13
16 16 16 15 15 15 15 15 15 15 14 14 14 14 14 14 14 14 14 14 14 14 14 14 14 13 13 13 13 13 13 13 13 13 13 13 13 13 13 13 13 13 13
16 16 16 15 15 15 15 15 14 14 14 14 14 14 14 14 13 13 13 13 13 13 13 13 13 13 13 13 13 13 13 13 13 13 13 13 13 13 13 13 13 13 13
16 16 16 15 15 15 15 14 14 14 14 14 14 14 14 14 13 13 13 13 13 13 13 13 13 13 13 13 13 12 12 12 12 12 12 12 12 12 12 12 12 12 12
16 16 16 16 15 15 15 14 14 14 14 14 14 14 13 13 13 13 13 13 13 13 13 13 13 12 12 12 12 12 12 12 12 12 12 12 12 12 12 12 12 12 12
16 16 16 15 15 15 15 14 14 14 14 14 14 13 13 13 13 13 13 13 12 12 12 12 12 12 12 12 12 12 12 12 12 12 12 12 12 12 12 11 11 11 11
16 16 15 15 15 15 14 14 14 14 14 14 13 13 13 13 13 13 12 12 12 12 12 12 12 12 12 12 12 12 12 11 11 11 11 11 11 11 11 11 11 11 11
16 15 15 15 15 14 14 14 14 14 13 13 13 13 13 13 13 12 12 12 12 12 12 11 11 11 11 11 11 11 11 11 11 11 11 10 10 10 10 11 10 10 10
15 15 15 15 14 14 14 13 13 13 13 13 13 13 13 12 12 12 12 12 11 11 11 11 11 11 11 11 11 11 11 11 11 10 10 10 10 10 10 10 10 10 10
15 15 14 14 14 14 13 13 13 13 13 12 12 12 12 12 12 12 12 12 11 11 11 11 11 10 10 10 10 10 10 10 10 10 10 10 9 9 9 9 9 9 9
14 14 14 14 14 13 13 13 13 13 12 12 12 12 12 12 12 12 11 11 11 11 11 10 10 10 10 9 9 9 9 9 9 9 9 9 9 9 9 9 8 8 8
14 14 14 14 13 13 13 12 12 12 12 12 12 12 12 12 11 11 11 11 11 10 10 10 10 9 9 9 9 8 8 8 8 9 9 8 8 8 8 8 8 8 8
13 13 13 13 13 13 12 12 12 12 12 12 12 12 11 11 11 11 11 11 10 10 10 9 9 9 9 8 8 8 8 7 7 7 7 8 8 8 7 7 7 7 7
13 13 13 13 13 12 12 12 12 12 12 11 11 11 11 11 11 10 10 10 10 9 9 9 9 8 8 8 8 8 7 7 7 6 6 7 7 7 7 7 7 7 6
13 13 12 12 12 12 12 12 12 11 11 11 11 10 10 10 10 10 10 10 9 9 9 9 8 8 8 7 7 7 7 6 6 6 5 5 6 6 6 6 6 6 6
Wind_Speed
9 12 13 13 13 12 12 12 12 11 11 11 11 11 11 11 11 10 10 10 9 9 9 9 10 10 10 10 10 10 10 10 10 9 9 8 8 8 7 8 8 8 9
12 15 14 13 13 12 12 12 12 11 11 10 11 10 10 10 10 9 9 9 9 9 9 8 8 9 9 9 9 9 9 9 8 7 7 7 8 8 7 7 7 7 7
14 15 14 13 13 13 12 12 12 11 11 10 10 10 10 9 9 9 8 8 9 9 8 8 8 8 8 8 8 8 7 6 4 4 3 4 7 8 8 7 6 6 5
14 15 14 14 13 13 12 12 11 11 11 10 10 10 9 9 8 8 8 8 8 8 8 8 8 7 8 7 7 6 5 4 2 1 2 5 7 7 7 7 6 6 5
13 14 15 15 13 12 12 12 11 11 10 10 9 9 9 8 8 8 8 8 8 8 8 7 7 6 7 6 6 5 4 3 2 3 3 6 7 6 6 5 4 5 5
13 15 16 15 13 13 12 11 10 10 10 9 9 8 8 8 7 7 7 7 7 7 7 6 5 5 5 5 4 4 3 3 4 3 4 6 6 5 4 4 3 3 3
12 14 15 15 13 12 11 11 10 9 9 8 8 7 7 7 7 6 6 6 6 6 5 5 5 4 4 4 3 3 2 4 5 2 3 6 6 5 3 2 2 2 2
11 13 15 15 14 12 11 10 9 9 8 7 7 6 6 6 6 6 5 5 5 5 5 5 4 4 3 2 2 1 2 5 5 3 3 6 6 4 2 1 1 0 1
11 11 11 12 12 12 11 10 9 8 8 7 6 6 6 6 6 5 5 5 5 4 4 4 3 2 2 1 1 2 3 6 6 4 1 5 4 3 1 1 1 1 2
8 9 10 10 11 10 10 11 10 9 8 7 6 5 5 5 5 5 4 4 4 4 3 3 2 1 0 1 2 3 4 6 6 4 1 3 3 1 1 2 2 2 3
6 6 8 8 8 9 10 10 10 9 8 7 6 6 5 4 5 5 5 4 4 3 3 2 1 1 2 3 4 4 4 5 5 2 1 3 2 0 2 3 3 4 4
7 7 7 7 7 7 7 9 8 8 8 7 6 6 5 4 4 5 6 6 4 4 3 3 3 3 3 3 5 5 5 6 4 1 1 2 2 2 3 4 4 5 5
7 7 6 6 7 6 5 5 5 5 6 5 5 6 5 4 4 4 5 4 4 4 3 3 3 3 3 2 3 4 5 5 3 2 2 3 3 4 5 5 6 6 7
7 7 6 6 6 6 5 4 4 3 3 2 3 4 4 2 2 2 3 3 2 2 2 2 2 3 3 3 3 3 4 3 3 2 3 4 4 4 6 6 7 7 7
6 7 6 6 6 6 4 3 4 3 3 4 3 3 3 2 1 1 2 2 2 1 1 0 1 1 2 2 2 2 3 3 3 3 3 5 5 6 7 8 8 8 8
7 8 7 7 7 7 5 4 3 4 4 4 4 3 3 3 2 2 2 2 1 1 1 0 1 1 1 1 2 3 3 3 3 3 3 4 6 7 7 8 9 9 9
6 7 7 7 7 7 6 5 4 4 4 3 3 4 3 3 3 2 1 1 1 2 1 1 2 1 1 1 2 3 3 3 3 3 2 2 3 5 7 8 9 10 10
6 6 6 6 7 7 6 5 4 4 4 3 4 4 3 3 3 3 1 1 2 2 1 1 1 1 1 1 2 3 2 2 3 3 3 2 2 3 6 8 9 10 10
6 6 6 7 7 7 6 5 4 4 4 4 4 3 4 4 4 3 2 1 2 2 1 1 1 1 2 2 3 3 3 2 2 3 2 2 2 3 4 6 9 10 10
6 6 6 6 7 7 6 4 4 4 3 3 3 3 4 4 4 3 2 1 2 1 1 1 1 1 1 2 4 3 3 3 2 2 2 3 2 4 5 5 6 8 10
6 7 7 7 7 6 5 5 5 4 3 3 3 4 4 4 4 3 2 1 1 1 1 1 1 1 2 2 2 3 4 4 3 2 2 2 2 3 4 5 5 5 6
6 6 7 7 7 6 6 5 4 4 3 3 3 3 4 4 4 3 3 2 1 1 1 0 1 1 1 2 1 2 3 3 3 2 2 2 3 3 3 4 4 5 4
6 6 6 6 6 6 6 5 4 3 3 2 3 2 2 4 4 4 3 2 2 2 2 1 0 1 1 1 1 0 1 2 3 3 3 3 3 3 3 3 4 5 5
6 6 6 6 6 6 7 7 7 6 5 4 4 3 3 3 3 3 3 3 2 2 1 1 0 0 1 1 2 1 2 2 3 4 3 3 4 5 5 5 4 5 5
6 6 6 6 6 6 7 7 7 5 4 3 3 4 4 3 3 3 3 3 2 1 1 1 0 0 1 1 1 2 3 3 3 4 6 5 4 4 5 5 4 4 5
5 6 6 6 6 6 7 7 7 7 6 5 4 4 4 3 2 3 3 3 2 2 1 1 1 1 1 1 2 1 1 2 3 3 6 7 7 5 5 5 4 3 5
Wind_Direction
118 123 129 125 123 120 115 114 114 113 108 106 105 101 97 94 91 88 88 86 84 84 85 84 81 79 75 72 71 72 73 72 73 78 82 83 85 84 84 83 79 81 83
125 126 129 127 125 122 119 115 113 112 111 109 106 103 100 97 95 92 91 91 90 86 86 85 81 79 77 75 74 75 76 73 75 81 86 86 88 84 80 81 81 81 82
122 127 130 127 127 124 121 116 112 111 110 111 109 106 101 97 95 95 92 92 92 89 85 84 81 79 77 76 78 77 75 72 73 83 90 110 102 87 82 79 76 79 79
122 127 131 128 128 125 122 119 116 114 111 108 109 107 102 99 96 95 94 93 91 90 86 81 78 78 77 77 79 77 71 57 35 13 47 94 95 95 86 79 70 70 71
117 121 127 129 128 126 124 122 118 115 112 111 110 109 105 103 102 97 93 93 90 88 87 83 78 76 83 81 76 71 57 23 350 325 52 78 88 96 91 83 73 68 66
122 121 127 130 129 128 126 125 122 118 115 114 113 112 109 105 105 102 97 94 90 89 89 88 84 81 84 84 77 64 41 355 324 318 65 78 88 91 92 85 77 69 64
123 122 131 131 131 130 129 127 126 124 123 121 119 119 117 112 106 103 103 98 93 90 91 88 83 85 86 85 79 65 20 334 314 350 62 83 88 88 84 80 76 63 52
120 123 131 134 132 130 129 128 130 130 130 129 127 123 121 117 110 107 109 108 105 98 94 91 80 81 79 75 66 25 329 315 320 341 74 89 85 85 72 55 29 17 339
121 126 132 138 136 135 133 132 131 131 131 134 134 129 122 119 119 116 115 114 114 112 107 99 86 72 64 39 338 306 300 298 303 304 83 104 98 81 51 3 327 297 309
124 134 139 142 145 144 141 141 139 137 138 138 137 137 132 128 131 134 135 131 124 120 122 117 103 71 332 287 275 272 276 284 283 288 92 116 115 81 353 323 307 290 292
131 136 144 144 142 146 148 150 147 146 149 148 147 153 151 153 160 161 162 153 148 148 154 164 195 249 259 265 267 263 263 272 283 279 101 127 135 193 294 290 294 287 280
158 157 151 148 144 138 143 146 153 155 157 163 163 162 171 173 169 161 159 159 169 180 199 215 235 240 246 247 254 250 259 268 275 272 167 173 195 249 278 280 281 285 288
158 150 148 148 143 140 137 142 145 151 153 170 165 160 159 159 140 133 136 154 175 189 207 231 236 247 256 244 237 237 255 267 265 250 202 207 227 257 275 278 278 281 282
148 149 148 143 143 143 137 141 138 131 132 133 149 151 139 114 104 119 126 144 157 176 188 212 238 260 269 267 253 249 260 264 270 247 201 207 225 252 269 275 276 278 279
159 158 157 153 150 147 142 146 142 136 127 131 123 124 116 101 132 99 98 114 118 116 134 244 256 281 295 298 287 283 279 270 267 259 217 221 232 244 263 274 276 277 279
169 165 164 164 159 153 158 162 156 137 120 121 116 119 110 104 93 88 83 72 69 70 40 309 311 294 305 327 309 302 295 293 285 274 231 228 233 243 261 271 276 278 280
172 163 163 168 162 160 162 166 152 138 129 125 125 141 136 114 101 90 105 94 73 72 33 7 354 349 332 323 297 294 297 292 290 292 274 248 244 247 260 270 277 280 282
165 162 162 167 165 161 159 160 147 140 137 137 134 136 131 120 114 92 106 98 68 65 40 360 11 344 340 327 306 295 298 299 298 307 302 288 272 266 263 268 275 281 283
163 160 162 165 168 160 158 153 147 142 140 131 121 120 125 127 122 103 109 82 67 65 34 15 16 355 338 327 309 301 297 286 276 295 294 293 278 275 270 267 269 274 281
163 160 162 164 163 157 157 151 145 140 143 128 126 122 124 123 124 108 110 95 74 96 79 49 7 356 350 325 315 307 289 279 266 265 278 292 287 280 280 276 268 268 271
164 165 164 163 167 160 160 162 162 164 159 146 136 129 129 128 126 117 122 122 107 127 122 83 40 349 344 351 341 317 302 282 262 258 271 285 289 282 278 274 277 279 277
169 163 160 160 163 161 162 165 162 155 153 147 135 126 125 125 126 129 135 149 144 130 111 90 70 26 331 6 4 327 314 312 299 295 298 289 291 289 272 271 273 284 287
170 167 162 160 160 160 154 145 138 125 119 125 149 162 143 129 134 135 144 149 150 149 165 197 158 127 289 315 15 63 307 275 302 285 283 297 309 305 295 286 274 280 284
168 159 156 157 156 156 154 157 160 166 171 181 171 162 145 127 128 135 139 140 146 146 155 193 186 194 162 266 301 283 258 280 296 299 294 297 306 301 299 300 292 284 284
154 151 153 150 150 152 159 164 166 168 169 160 151 151 153 148 141 136 135 134 135 139 146 147 132 293 215 225 257 287 295 307 289 280 290 300 300 288 291 289 288 287 291
144 146 151 153 156 157 161 165 167 168 165 161 165 166 166 163 156 151 142 141 137 138 158 186 206 219 237 251 258 265 273 280 286 281 284 296 296 290 290 284 287 288 289
Height
1500 1501 1502 1504 1506 1508 1509 1511 1513 1515 1516 1517 1519 1520 1520 1521 1522 1523 1524 1525 1525 1526 1527 1527 1528 1529 1529 1530 1530 1530 1531 1531 1531 1531 1532 1532 1533 1533 1534 1534 1534 1534 1535
1499 1500 1502 1504 1506 1508 1510 1512 1513 1515 1516 1518 1519 1520 1521 1522 1523 1524 1524 1525 1526 1526 1527 1528 1528 1529 1529 1530 1530 1531 1531 1532 1532 1532 1533 1533 1533 1534 1534 1534 1535 1535 1535
1499 1500 1502 1504 1506 1508 1510 1512 1513 1515 1517 1518 1519 1520 1521 1522 1523 1524 1525 1525 1526 1527 1527 1528 1529 1529 1530 1530 1531 1531 1532 1532 1533 1533 1533 1534 1534 1534 1534 1535 1535 1535 1535
1499 1500 1502 1504 1506 1508 1510 1512 1514 1515 1517 1518 1519 1521 1521 1522 1523 1524 1525 1525 1526 1527 1527 1528 1529 1529 1530 1530 1531 1532 1532 1533 1533 1534 1534 1534 1534 1535 1535 1535 1535 1535 1535
1499 1500 1502 1504 1506 1508 1510 1512 1514 1515 1517 1518 1519 1521 1522 1523 1524 1524 1525 1526 1526 1527 1528 1528 1529 1530 1530 1531 1531 1532 1533 1533 1534 1534 1535 1535 1535 1535 1535 1535 1535 1535 1535
1499 1500 1502 1504 1506 1508 1510 1512 1514 1515 1517 1518 1519 1520 1522 1523 1524 1524 1525 1526 1527 1527 1528 1528 1529 1530 1530 1531 1531 1532 1533 1533 1534 1534 1535 1534 1534 1534 1534 1534 1534 1535 1535
1499 1501 1503 1505 1506 1508 1510 1512 1513 1515 1516 1518 1519 1520 1521 1522 1523 1524 1525 1526 1527 1527 1528 1528 1529 1530 1530 1531 1531 1532 1533 1533 1533 1534 1534 1534 1534 1534 1534 1534 1534 1534 1534
1499 1501 1503 1504 1506 1508 1510 1512 1513 1515 1516 1517 1519 1520 1521 1522 1523 1524 1525 1526 1526 1527 1528 1528 1529 1529 1530 1531 1531 1532 1532 1533 1533 1533 1534 1533 1533 1533 1533 1533 1533 1533 1533
1500 1501 1502 1504 1506 1508 1510 1511 1513 1514 1515 1517 1518 1519 1520 1521 1522 1523 1524 1525 1526 1526 1527 1527 1528 1529 1529 1530 1530 1531 1531 1532 1532 1532 1533 1533 1533 1532 1532 1532 1532 1532 1532
1500 1501 1502 1503 1505 1507 1509 1510 1512 1513 1515 1516 1517 1518 1519 1520 1521 1522 1523 1524 1525 1526 1526 1527 1527 1528 1528 1529 1529 1530 1530 1531 1531 1531 1531 1531 1531 1531 1531 1531 1531 1530 1530
1499 1501 1502 1503 1505 1506 1508 1510 1511 1512 1514 1515 1516 1517 1519 1519 1520 1521 1522 1523 1524 1524 1525 1526 1526 1527 1527 1528 1528 1528 1529 1529 1529 1530 1530 1530 1530 1530 1529 1529 1529 1529 1528
1498 1500 1501 1503 1504 1506 1507 1508 1510 1511 1513 1514 1515 1516 1518 1519 1520 1520 1521 1522 1523 1523 1524 1524 1525 1525 1526 1526 1527 1527 1527 1527 1528 1528 1528 1528 1528 1527 1527 1527 1526 1526 1526
1496 1498 1500 1501 1503 1504 1506 1507 1509 1510 1512 1513 1514 1516 1517 1518 1519 1519 1520 1521 1521 1522 1522 1523 1523 1524 1524 1525 1525 1525 1525 1526 1526 1526 1526 1526 1526 1525 1525 1524 1524 1524 1523
1494 1496 1498 1500 1501 1503 1504 1506 1507 1509 1510 1512 1513 1515 1516 1517 1518 1518 1519 1519 1520 1520 1521 1521 1522 1522 1522 1523 1523 1523 1523 1524 1524 1524 1524 1523 1523 1523 1522 1522 1521 1521 1520
1492 1494 1496 1497 1499 1501 1502 1504 1506 1507 1509 1510 1512 1513 1514 1515 1516 1517 1517 1517 1518 1519 1519 1519 1520 1520 1521 1521 1521 1521 1521 1521 1521 1521 1521 1521 1520 1520 1519 1519 1519 1518 1518
1489 1491 1493 1495 1497 1498 1500 1502 1504 1505 1507 1508 1510 1511 1512 1513 1514 1515 1515 1516 1516 1517 1517 1518 1518 1518 1518 1518 1519 1519 1519 1519 1519 1519 1518 1518 1517 1517 1516 1516 1515 1515 1514
1486 1488 1490 1492 1494 1495 1497 1499 1501 1503 1505 1506 1508 1509 1510 1511 1512 1513 1513 1514 1514 1515 1515 1516 1516 1516 1516 1516 1516 1516 1516 1516 1516 1516 1515 1514 1514 1513 1513 1512 1512 1511 1511
1482 1484 1486 1489 1491 1493 1495 1497 1499 1501 1502 1504 1505 1506 1508 1509 1510 1510 1511 1512 1512 1513 1513 1513 1514 1514 1513 1513 1513 1513 1513 1513 1513 1513 1512 1511 1510 1510 1509 1509 1508 1507 1507
1478 1480 1483 1485 1487 1489 1492 1494 1496 1498 1500 1501 1503 1504 1505 1506 1507 1508 1509 1510 1510 1510 1511 1511 1511 1511 1511 1510 1510 1510 1510 1510 1509 1509 1508 1508 1507 1506 1505 1505 1504 1503 1503
1475 1477 1479 1482 1484 1486 1489 1491 1493 1495 1497 1498 1500 1501 1502 1504 1505 1506 1506 1507 1508 1508 1508 1508 1508 1508 1508 1508 1507 1507 1506 1506 1506 1505 1505 1504 1503 1502 1502 1501 1500 1499 1498
1471 1473 1475 1478 1480 1483 1485 1487 1490 1492 1494 1495 1497 1499 1500 1501 1502 1503 1504 1504 1505 1505 1505 1506 1506 1506 1505 1505 1504 1503 1503 1503 1502 1502 1501 1500 1500 1499 1498 1497 1496 1495 1494
1467 1469 1472 1474 1477 1479 1481 1484 1487 1489 1491 1493 1494 1496 1497 1498 1499 1500 1501 1501 1502 1503 1503 1503 1503 1503 1503 1502 1502 1501 1499 1499 1499 1499 1498 1497 1496 1495 1494 1493 1492 1491 1490
1463 1466 1468 1470 1473 1476 1478 1481 1484 1486 1488 1490 1491 1493 1494 1495 1496 1497 1498 1499 1499 1500 1500 1500 1500 1500 1500 1500 1500 1500 1499 1496 1494 1493 1494 1493 1492 1491 1490 1489 1487 1486 1485
1459 1463 1465 1467 1470 1472 1475 1478 1480 1482 1483 1485 1488 1489 1491 1492 1493 1494 1495 1496 1496 1497 1497 1497 1498 1498 1498 1497 1497 1497 1498 1496 1494 1489 1489 1489 1488 1487 1486 1485 1483 1482 1481
1456 1459 1462 1464 1466 1469 1471 1474 1476 1478 1480 1483 1485 1486 1488 1489 1490 1491 1492 1493 1493 1494 1494 1495 1495 1495 1495 1494 1494 1494 1493 1493 1492 1490 1485 1483 1483 1482 1481 1480 1479 1477 1476
1453 1455 1458 1461 1463 1466 1468 1471 1473 1475 1477 1479 1481 1483 1484 1485 1487 1488 1489 1489 1490 1491 1491 1491 1491 1492 1492 1491 1491 1490 1490 1489 1488 1486 1483 1480 1478 1477 1476 1475 1474 1472 1471